Wise, VA

12:52 AM EDT on September 20, 2017 (GMT -0400)
Lonesome Pine

Weather History for KLNP - October, 2010

Change the Weather History Date:

Wednesday, October 27, 2010

  Actual Average Record
Temperature  
Mean Temperature 60 °F -  
Max Temperature 66 °F 60 °F 75 °F (2014)
Min Temperature 53 °F 42 °F 26 °F (2001)
Degree Days  
Heating Degree Days 6    
Growing Degree Days 10 (Base 50)    
Moisture  
Dew Point 54 °F    
Average Humidity 91    
Maximum Humidity 100    
Minimum Humidity 68    
Precipitation  
Precipitation 0.00 in - - ()
Sea Level Pressure  
Sea Level Pressure 29.98 in    
Wind  
Wind Speed 5 mph (SSW)    
Max Wind Speed 15 mph    
Max Gust Speed 17 mph    
Visibility 9 miles    
Events      
Averages and records for this station are not official NWS values.
T = Trace of Precipitation, MM = Missing Value Source: NWS Daily Summary

Daily Weather History Graph

Daily Weather History Graph

Search for Another Location

Airport or City:

Trip Planner

Search our weather history database for the weather conditions in past years. The results will help you decide how hot, cold, wet, or windy it might be!

Date:

Astronomy

Oct. 27, 2010 Rise Set
Actual Time 7:49 AM EDT 6:38 PM EDT
Civil Twilight 7:22 AM EDT 7:04 PM EDT
Nautical Twilight 6:52 AM EDT 7:35 PM EDT
Astronomical Twilight 6:21 AM EDT 8:05 PM EDT
Moon 10:05 PM EDT (10/27) 12:16 PM EDT (10/27)
Length of Visible Light 11h 42m
Length of Day
10h 49m
Waning Gibbous, 79% of the Moon is Illuminated
Oct 27
Waning Gibbous
Oct 30
Last Quarter
Nov 6
New
Nov 13
First Quarter
Nov 21
Full

Hourly Weather History & Observations

Time (EDT) Temp. Dew Point Humidity Pressure Visibility Wind Dir Wind Speed Gust Speed Precip Events Conditions
12:00 AM 57.2 °F 57.2 °F 100% 29.89 in 7.0 mi Calm Calm - N/A   Overcast
12:20 AM 57.2 °F 57.2 °F 100% 29.89 in 10.0 mi Calm Calm - N/A   Overcast
12:40 AM 57.2 °F 57.2 °F 100% 29.87 in 10.0 mi SSE 3.5 mph - N/A   Overcast
1:00 AM 59.0 °F 57.2 °F 94% 29.88 in 7.0 mi SSW 5.8 mph - N/A   Overcast
1:20 AM 57.2 °F 57.2 °F 100% 29.90 in 2.0 mi WSW 5.8 mph - N/A   Overcast
2:00 AM 55.4 °F 55.4 °F 100% 29.92 in 2.0 mi SW 10.4 mph 17.3 mph N/A   Overcast
2:20 AM 55.4 °F 55.4 °F 100% 29.92 in 10.0 mi SSW 5.8 mph - N/A   Overcast
2:40 AM 55.4 °F 53.6 °F 94% 29.92 in 10.0 mi SSW 5.8 mph - N/A   Overcast
3:00 AM 55.4 °F 53.6 °F 94% 29.92 in 10.0 mi WSW 4.6 mph - N/A   Overcast
3:40 AM 55.4 °F 53.6 °F 94% 29.91 in 10.0 mi West 3.5 mph - N/A   Overcast
4:00 AM 53.6 °F 53.6 °F 100% 29.91 in 10.0 mi Calm Calm - N/A   Mostly Cloudy
4:20 AM 53.6 °F 51.8 °F 94% 29.92 in 10.0 mi Calm Calm - N/A   Mostly Cloudy
4:40 AM 53.6 °F 53.6 °F 100% 29.91 in 10.0 mi Calm Calm - N/A   Mostly Cloudy
5:20 AM 53.6 °F 51.8 °F 94% 29.92 in 10.0 mi SSW 4.6 mph - N/A   Overcast
5:40 AM 53.6 °F 53.6 °F 100% 29.93 in 10.0 mi WSW 4.6 mph - N/A   Overcast
6:00 AM 53.6 °F 51.8 °F 94% 29.92 in 10.0 mi South 3.5 mph - N/A   Overcast
6:20 AM 53.6 °F 51.8 °F 94% 29.96 in 4.0 mi West 4.6 mph - N/A   Overcast
6:40 AM 53.6 °F 51.8 °F 94% 29.96 in 7.0 mi SSW 5.8 mph - N/A   Overcast
7:20 AM 53.6 °F 51.8 °F 94% 29.95 in 7.0 mi SSE 4.6 mph - N/A   Overcast
7:40 AM 53.6 °F 51.8 °F 94% 29.97 in 5.0 mi SW 3.5 mph - N/A   Overcast
8:00 AM 53.6 °F 51.8 °F 94% 29.98 in 7.0 mi SSW 5.8 mph - N/A   Overcast
8:20 AM 53.6 °F 51.8 °F 94% 29.99 in 7.0 mi SSW 9.2 mph - N/A   Overcast
8:40 AM 53.6 °F 51.8 °F 94% 30.00 in 4.0 mi SSW 8.1 mph - N/A   Overcast
9:00 AM 53.6 °F 51.8 °F 94% 30.01 in 10.0 mi SW 6.9 mph - N/A   Overcast
9:20 AM 53.6 °F 51.8 °F 94% 30.01 in 10.0 mi SSW 6.9 mph - N/A   Overcast
9:40 AM 53.6 °F 51.8 °F 94% 30.02 in 10.0 mi SSW 6.9 mph - N/A   Overcast
10:00 AM 53.6 °F 51.8 °F 94% 30.02 in 10.0 mi SSW 5.8 mph - N/A   Overcast
10:20 AM 55.4 °F 51.8 °F 88% 30.03 in 10.0 mi South 6.9 mph - N/A   Overcast
11:00 AM 53.6 °F 51.8 °F 94% 30.04 in 10.0 mi SW 9.2 mph - N/A   Overcast
11:20 AM 53.6 °F 50.0 °F 88% 30.04 in 1.8 mi South 6.9 mph - N/A   Overcast
11:40 AM 53.6 °F 51.8 °F 94% 30.04 in 3.0 mi SW 6.9 mph - N/A   Overcast
12:00 PM 53.6 °F 51.8 °F 94% 30.04 in 3.0 mi SSW 8.1 mph - N/A   Overcast
12:20 PM 53.6 °F 51.8 °F 94% 30.04 in 4.0 mi SE 3.5 mph - N/A   Overcast
1:00 PM 55.4 °F 53.6 °F 94% 30.04 in 10.0 mi SSW 6.9 mph - N/A   Overcast
1:20 PM 55.4 °F 53.6 °F 94% 30.03 in 10.0 mi SSW 3.5 mph - N/A   Overcast
1:40 PM 55.4 °F 53.6 °F 94% 30.03 in 10.0 mi SSW 4.6 mph - N/A   Overcast
2:00 PM 57.2 °F 55.4 °F 94% 30.01 in 10.0 mi South 4.6 mph - N/A   Overcast
2:20 PM 59.0 °F 55.4 °F 88% 30.00 in 10.0 mi SSW 4.6 mph - N/A   Mostly Cloudy
2:40 PM 60.8 °F 57.2 °F 88% 29.99 in 10.0 mi South 8.1 mph - N/A   Scattered Clouds
3:00 PM 64.4 °F 57.2 °F 77% 29.99 in 10.0 mi South 5.8 mph - N/A   Scattered Clouds
3:20 PM 64.4 °F 57.2 °F 77% 29.99 in 10.0 mi WSW 9.2 mph - N/A   Scattered Clouds
3:40 PM 66.2 °F 57.2 °F 73% 30.00 in 10.0 mi WSW 8.1 mph - N/A   Mostly Cloudy
4:00 PM 66.2 °F 55.4 °F 68% 30.00 in 10.0 mi WSW 9.2 mph - N/A   Scattered Clouds
4:20 PM 64.4 °F 55.4 °F 73% 30.00 in 10.0 mi SW 13.8 mph - N/A   Clear
4:40 PM 64.4 °F 55.4 °F 73% 30.00 in 10.0 mi SW 15.0 mph - N/A   Scattered Clouds
5:00 PM 62.6 °F 55.4 °F 77% 30.01 in 10.0 mi SSW 12.7 mph - N/A   Scattered Clouds
5:20 PM 62.6 °F 55.4 °F 77% 30.01 in 10.0 mi SW 10.4 mph - N/A   Mostly Cloudy
5:40 PM 60.8 °F 55.4 °F 82% 30.02 in 10.0 mi SSW 10.4 mph - N/A   Overcast
6:00 PM 62.6 °F 55.4 °F 77% 30.01 in 10.0 mi SW 11.5 mph - N/A   Mostly Cloudy
6:20 PM 60.8 °F 55.4 °F 82% 30.02 in 10.0 mi SW 10.4 mph - N/A   Scattered Clouds
6:40 PM 59.0 °F 55.4 °F 88% 30.01 in 10.0 mi SW 5.8 mph - N/A   Clear
7:00 PM 57.2 °F 53.6 °F 88% 30.02 in 10.0 mi SSW 4.6 mph - N/A   Clear
7:20 PM 57.2 °F 55.4 °F 94% 30.03 in 10.0 mi SSW 5.8 mph - N/A   Scattered Clouds
7:40 PM 57.2 °F 55.4 °F 94% 30.04 in 10.0 mi SSW 6.9 mph - N/A   Scattered Clouds
8:00 PM 57.2 °F 55.4 °F 94% 30.04 in 10.0 mi SSW 8.1 mph - N/A   Clear
8:20 PM 55.4 °F 55.4 °F 100% 30.05 in 10.0 mi SSW 6.9 mph - N/A   Clear
8:40 PM 55.4 °F 53.6 °F 94% 30.05 in 10.0 mi SW 3.5 mph - N/A   Clear
9:00 PM 57.2 °F 55.4 °F 94% 30.05 in 10.0 mi SW 4.6 mph - N/A   Clear
9:20 PM 55.4 °F 55.4 °F 100% 30.05 in 10.0 mi SW 5.8 mph - N/A   Clear
9:40 PM 55.4 °F 53.6 °F 94% 30.06 in 10.0 mi SSW 6.9 mph - N/A   Clear
10:00 PM 55.4 °F 53.6 °F 94% 30.07 in 10.0 mi SW 8.1 mph - N/A   Clear
10:20 PM 55.4 °F 53.6 °F 94% 30.07 in 10.0 mi SSW 4.6 mph - N/A   Clear
10:40 PM 55.4 °F 51.8 °F 88% 30.08 in 10.0 mi South 4.6 mph - N/A   Clear
11:00 PM 55.4 °F 51.8 °F 88% 30.08 in 10.0 mi SSW 5.8 mph - N/A   Clear
11:20 PM 55.4 °F 51.8 °F 88% 30.08 in 10.0 mi SW 3.5 mph - N/A   Clear
11:40 PM 53.6 °F 51.8 °F 94% 30.09 in 10.0 mi South 6.9 mph - N/A   Clear